STARLINK-1045 (44750 NORAD) Tracking and Keplerian Element Data

This shows tracking and keplerian element data for the satellite.

Feedback or suggestion? Click here.




ElementValue
Catalog44750
NameSTARLINK-1045
Epoch Orbit1115
Epoch Day23.25001157
Epoch Year2020
RAAN190.8892
Inclination53.0047
Eccentricity0.0001562
Argument of Perigee83.9398
Mean Anonmoly267.328
Mean Motion15.05488524
Decay Rate0.00433712
L11 44750U 19074AP 20023.25001157 .00433712 00000-0 28334-1 0 9990
L22 44750 53.0047 190.8892 0001562 83.9398 267.3280 15.05488524 11150

Live tracking and technical data element details for STARLINK-1045 (NORAD 44750). STARLINK-1045 can be tracked NOW for your location showing map with azimuth and elevation plus other details from your city location.

Track the satellite on the map from your city or location and see movement details for azimuth, elevation, latitude, longitude, range, height, and movement on the map or in text.







IsCatalogInMostPopularTable: catalog: 44750, numindb: 10
Update: records affected: 1



GetName: 44750 STARLINK-1045

Hit Count: updated at: Fri, 24 Jan 2020 13:27:02 GMT